{"data":{"norad_id":52369,"epoch":"2026-05-25T03:40:16.563936Z","epoch_age_seconds":72088,"freshness":"FRESH","line1":"1 52369U 22045AQ  26145.15296949 -.00001307  00000+0 -64087-4 0  9992","line2":"2 52369  53.2127 205.8629 0001056  86.0851 274.0262 15.08831325227469","mean_motion":15.08831325,"eccentricity":0.0001056,"inclination_deg":53.2127,"raan_deg":205.8629,"arg_perigee_deg":86.0851,"mean_anomaly_deg":274.0262,"bstar":-6.4087e-5,"rev_number":22746,"period_min":95.438103394361,"perigee_km":539.03937412648,"apogee_km":540.50043606484,"semimajor_km":6917.9069050957,"source":"CELESTRAK","updated_at":"2026-05-25T13:38:17.120522Z"}}